Showing default

FLOCK 4Q 7, 58318

Orbit data source: Space-Track

FLOCK 4Q 7, 58318 is a payload satellite owned by Planet (US) in SSO that was launched on Sat, 11 Nov 2023 UTC via an FALCON 9 launch vehicle from the Air Force Western Test Range (AFWTR). Payload-class satellites include a variety of spacecraft equipped with specific instruments for various scientific and technological missions. These include communications satellites like Starlink; space stations such as the ISS; scientific satellites like the Hubble; Earth observation satellites from companies like Planet Labs, Umbra, and HawkEye 360; GPS; miniature CubeSats for education and research; and military/defense satellites.

Loading next visibility...
Identifier
58318, 2023-174BQ
Orbit
SSO
Country
Flag of USUS
Related business
Manufacturer
Planet
Mission
Operational Commercial Imaging
Bus & Motor
CUBESAT 3U, Unknown motor
Mass
5.7 kg wet, 5.7 kg dry
Launch date (UTC)
2023-11-11 (2 years ago)
Launch vehicle
FALCON 9
Launch site
Air Force Western Test Range (AFWTR)
Object type
Payload
Rocket body
Debris
Shape & HBR
Box + 2 Pan, 1.0 m
Radar Cross Section
0.072 m², Medium (>0.1 m² and < 1m²)

Expand to show TLE details & history
Last TLE update: 10 hours ago

TLE from 10 hours ago
0 FLOCK 4Q 7
1 58318U 23174BQ  26126.80540136  .00025376  00000-0  40762-3 0  9991
2 58318  97.3905 216.9745 0005469 277.6611  82.4020 15.53001899139323
Epoch: 2026-05-06T19:19Z
TLE epoch observation values (Epoch: 2026-05-06T19:19:46.677Z)
Latitude
-0.00011°
Longitude
62.3694°
Altitude
410.614 km
Speed
7.665 km/s
True Right ascension
14h 27m 53s
True Declination
0° 00' 00"
Sunlit
Object was in full shadow at epoch
Visualization orbit readout
Latitude
Unknown
Longitude
Unknown
Altitude
Unknown
Speed
Unknown
Apparent Right ascension
Unknown
Apparent Declination
Unknown
Sunlit
N/A
Visualization observer readout
Local Sidereal Time
13:07:54
Azimuth
Unknown
Elevation
Unknown
Doppler factor
Unknown
Orbital elements
Apogee altitude
408.598 km
Perigee altitude
401.179 km
Semi-major axis
6,783.025 km
Eccentricity
0.00055
Inclination
97.3905°
RAAN
216.9745°
Arg. of periapsis
277.6611°
True anomaly
82.46413°
Mean anomaly
82.402°
Eccentric anomaly
82.43306°
Mean motion
3.88515 °/min
Orbital period
92.66 mins
BSTAR
0.00040762
Loading maneuver chart data...
Computing Atmospheric mass density...
Loading historical data...
Loading historical data...
Loading historical data...
Loading historical data...
Loading historical data...
Loading historical data...
Loading historical data...

Documentation

Showing up to 5 results
|